Location: Hamilton
(37.7830°S, 175.2830°E)
Time: 02:56:50
(UTC+13:00)

ISS - Pass Details

Date: 29 January 2019
Orbit: 403 x 411 km, 51.6° (Epoch: 18 February)

Event Time Altitude Azimuth Distance (km) Brightness Sun altitude
Exits shadow 04:42:25 20° 29° (NNE) 1,011 -2.0 -18.4°
Maximum altitude 04:43:08 22° 49° (NE) 964 -1.9 -18.3°
Drops below altitude 10° 04:45:47 10° 101° (ESE) 1,491 -0.1 -17.9°
Sets 04:48:11 0° 117° (ESE) 2,359 1.6 -17.5°
